Location: A�t �Alizem
(31.2076°N, 8.7872°W)
Time: 05:51:50
(UTC+00:00)

Okean O Rocket - Pass Details

Date: 27 November 2020
Orbit: 622 x 645 km, 98.2° (Epoch: 25 January)

Event Time Altitude Azimuth Distance (km) Brightness Sun altitude
Rises 18:02:56 0° 161° (SSE) 2,887 5.0 -6.8°
Reaches altitude 10° 18:05:07 10° 158° (SSE) 1,986 4.2 -7.2°
Maximum altitude 18:09:24 68° 76° (ENE) 676 1.5 -8.1°
Drops below altitude 10° 18:13:44 10° 354° (N) 2,007 4.1 -9.0°
Sets 18:15:57 0° 352° (N) 2,921 4.9 -9.4°
